Banff, Alberta

7:19 AM MDT on May 24, 2017 (GMT -0600)
Banff

Weather History for CWZG - September, 2013

Change the Weather History Date:

Sunday, September 15, 2013

  Actual Average Record
Temperature  
Mean Temperature 60 °F -  
Max Temperature 78 °F - - ()
Min Temperature 41 °F - - ()
Degree Days  
Heating Degree Days 6    
Growing Degree Days 10 (Base 50)    
Moisture  
Dew Point 44 °F    
Average Humidity 64    
Maximum Humidity 99    
Minimum Humidity 25    
Precipitation  
Precipitation 0.00 in - - ()
Sea Level Pressure  
Sea Level Pressure 29.95 in    
Wind  
Wind Speed 2 mph ()    
Max Wind Speed 7 mph    
Max Gust Speed -    
T = Trace of Precipitation, MM = Missing Value Source: Averaged Metar Reports

Daily Weather History Graph

Daily Weather History Graph

Search for Another Location

Airport or City:

Trip Planner

Search our weather history database for the weather conditions in past years. The results will help you decide how hot, cold, wet, or windy it might be!

Date:

Astronomy

Sep. 15, 2013 Rise Set
Actual Time 7:17 AM MDT 7:55 PM MDT
Civil Twilight 6:44 AM MDT 8:28 PM MDT
Nautical Twilight 6:04 AM MDT 9:08 PM MDT
Astronomical Twilight 5:22 AM MDT 9:50 PM MDT
Moon 5:45 PM MDT (9/15) 2:37 AM MDT (9/15)
Length of Visible Light 13h 44m
Length of Day
12h 37m
Waxing Gibbous, 82% of the Moon is Illuminated
Sep 15
Waxing Gibbous
Sep 19
Full
Sep 26
Last Quarter
Oct 4
New
Oct 11
First Quarter

Hourly Weather History & Observations

Time (MDT) Temp. Dew Point Humidity Pressure Visibility Wind Dir Wind Speed Gust Speed Precip Events Conditions
12:00 AM 54.5 °F 49.8 °F 84% 30.04 in - ENE 1.2 mph - N/A   Unknown
1:00 AM 51.4 °F 48.2 °F 89% 30.04 in - North 1.2 mph - N/A   Unknown
2:00 AM 48.4 °F 45.7 °F 90% 30.04 in - Calm Calm - N/A   Unknown
3:00 AM 46.2 °F 44.6 °F 94% 30.05 in - Calm Calm - N/A   Unknown
4:00 AM 44.8 °F 44.1 °F 97% 30.05 in - Calm Calm - N/A   Unknown
5:00 AM 44.6 °F 43.3 °F 95% 30.06 in - WNW 1.2 mph - N/A   Unknown
6:00 AM 43.2 °F 42.8 °F 99% 30.08 in - Calm Calm - N/A   Unknown
7:00 AM 41.4 °F 40.8 °F 98% 30.08 in - Calm Calm - N/A   Unknown
8:00 AM 43.7 °F 42.8 °F 97% 30.08 in - SW 1.2 mph - N/A   Unknown
9:00 AM 48.4 °F 44.2 °F 86% 30.07 in - SW 4.6 mph - N/A   Unknown
10:00 AM 54.0 °F 45.0 °F 72% 30.04 in - SW 5.8 mph - N/A   Unknown
11:00 AM 60.3 °F 45.3 °F 58% 30.01 in - SW 5.8 mph - N/A   Unknown
12:00 PM 66.9 °F 46.0 °F 47% 29.97 in - SW 3.5 mph - N/A   Unknown
1:00 PM 70.5 °F 44.1 °F 39% 29.94 in - NE 1.2 mph - N/A   Unknown
2:00 PM 75.9 °F 39.0 °F 26% 29.90 in - NE 2.3 mph - N/A   Unknown
3:00 PM 77.4 °F 38.7 °F 25% 29.87 in - ENE 4.6 mph - N/A   Unknown
4:00 PM 78.3 °F 40.1 °F 25% 29.84 in - ESE 4.6 mph - N/A   Unknown
5:00 PM 78.8 °F 40.8 °F 26% 29.81 in - ESE 4.6 mph - N/A   Unknown
6:00 PM 76.5 °F 41.4 °F 28% 29.81 in - NE 4.6 mph - N/A   Unknown
7:00 PM 71.2 °F 43.9 °F 37% 29.82 in - NNE 6.9 mph - N/A   Unknown
8:00 PM 65.7 °F 45.9 °F 49% 29.81 in - ENE 3.5 mph - N/A   Unknown
9:00 PM 61.0 °F 43.5 °F 53% 29.81 in - NNE 3.5 mph - N/A   Unknown
10:00 PM 55.0 °F 42.8 °F 63% 29.81 in - NNW 1.2 mph - N/A   Unknown
11:00 PM 52.3 °F 43.2 °F 71% 29.78 in - SW 1.2 mph - N/A   Unknown